Weather History for MZBZ - April, 2014

Change the Weather History Date:

Monday, April 28, 2014

  Actual Average Record
Temperature  
Mean Temperature 86 °F -  
Max Temperature 92 °F 90 °F 95 °F (1997)
Min Temperature 81 °F 76 °F 73 °F (2001)
Cooling Degree Days 22    
Growing Degree Days 36 (Base 50)    
Moisture  
Dew Point 78 °F    
Average Humidity 74    
Maximum Humidity 84    
Minimum Humidity 62    
Precipitation  
Precipitation 0.00 in 0.13 in - ()
Sea Level Pressure  
Sea Level Pressure 29.75 in    
Wind  
Wind Speed 7 mph ()    
Max Wind Speed 12 mph    
Max Gust Speed -    
Visibility 7.9 miles    
Events      
Averages and records for this station are not official NWS values.
T = Trace of Precipitation, MM = Missing Value Source: Averaged Metar Reports

Daily Weather History Graph

Daily Weather History Graph

Search for Another Location

Airport or City:

Trip Planner

Search our weather history database for the weather conditions in past years. The results will help you decide how hot, cold, wet, or windy it might be!

Date:

Astronomy

Apr. 28, 2014 Rise Set
Actual Time 5:28 AM CST 6:12 PM CST
Civil Twilight 5:06 AM CST 6:35 PM CST
Nautical Twilight 4:39 AM CST 7:01 PM CST
Astronomical Twilight 4:12 AM CST 7:28 PM CST
Moon 4:58 AM CST (4/28) 5:54 PM CST (4/28)
Length of Visible Light 13h 29m
Length of Day
12h 44m
Waning Crescent, 0% of the Moon is Illuminated
Apr 28
Waning Crescent
Apr 29
New
May 6
First Quarter
May 14
Full
May 21
Last Quarter

Hourly Weather History & Observations

Time (CST) Temp. Heat Index Dew Point Humidity Pressure Visibility Wind Dir Wind Speed Gust Speed Precip Events Conditions
12:00 AM 82 °F - 77 °F 80% 29.83 in 12 mi East 4.6 mph - -   Mostly Cloudy
3:00 AM 82 °F - 77 °F 81% 29.76 in 12 mi ESE 11.5 mph - -   Mostly Cloudy
5:00 AM 82.4 °F 90.9 °F 77.0 °F 84% 29.76 in 6.2 mi East 11.5 mph - N/A   Mostly Cloudy
6:00 AM 82 °F - 76 °F 78% 29.77 in 9 mi East 11.5 mph - -   Haze
6:00 AM 82.4 °F 90.9 °F 77.0 °F 84% 29.77 in 6.2 mi East 11.5 mph - N/A   Mostly Cloudy
7:00 AM 82.4 °F 90.9 °F 77.0 °F 84% 29.78 in 6.2 mi ESE 6.9 mph - N/A   Mostly Cloudy
8:00 AM 84.2 °F 96.1 °F 78.8 °F 84% 29.79 in 6.2 mi ESE 11.5 mph - N/A   Mostly Cloudy
9:00 AM 87 °F - 78 °F 69% 29.80 in 9 mi ESE 5.8 mph - -   Haze
9:00 AM 86.0 °F 99.3 °F 78.8 °F 79% 29.80 in 6.2 mi ESE 5.8 mph - N/A   Mostly Cloudy
10:00 AM 87.8 °F 102.5 °F 78.8 °F 75% 29.79 in 6.2 mi East 8.1 mph - N/A   Scattered Clouds
11:00 AM 89.6 °F 104.7 °F 78.8 °F 70% 29.76 in 6.2 mi East 9.2 mph - N/A   Partly Cloudy
12:00 PM 91 °F - 80 °F 62% 29.75 in 11 mi ESE 6.9 mph - -   Haze
12:00 PM 91.4 °F 107.2 °F 78.8 °F 66% 29.74 in 6.2 mi ESE 6.9 mph - N/A   Partly Cloudy
1:00 PM 91.4 °F 107.2 °F 78.8 °F 66% 29.72 in 6.2 mi SE 6.9 mph - N/A   Partly Cloudy
2:00 PM 91.4 °F 111.0 °F 80.6 °F 71% 29.70 in 6.2 mi SE 6.9 mph - N/A   Partly Cloudy
3:00 PM 90 °F - 79 °F 64% 29.69 in 9 mi SE 6.9 mph - -   Haze
3:00 PM 91.4 °F 107.2 °F 78.8 °F 66% 29.69 in 6.2 mi SE 6.9 mph - N/A   Partly Cloudy
4:00 PM 89.6 °F 102.2 °F 77.0 °F 66% 29.68 in - ESE 8.1 mph - N/A   Clear
5:00 PM 89.6 °F 99.8 °F 75.2 °F 62% 29.68 in - East 10.4 mph - N/A   Clear
6:00 PM 85 °F - 77 °F 70% 29.70 in 9 mi ESE 5.8 mph - -   Haze
6:00 PM 84.2 °F 94.1 °F 77.0 °F 79% 29.69 in - ESE 5.8 mph - N/A   Clear
9:00 PM 82 °F - 78 °F 83% 29.75 in 10 mi SE 4.6 mph - -   Haze